Regional Weather Roundup
Issued by NWS Goodland, KS

Home | Current Version | Previous Version | Text Only | Print | Product List | Glossary Off
Versions: 1 2 3 4 5 6 7 8 9 10 11 12 13 14 15 16 17 18 19 20 21 22 23 24 25 26 27 28 29 30 31 32 33 34 35 36 37 38 39 40 41 42 43 44 45 46 47 48 49 50

000
ASUS43 KGLD 271859
RWRGLD

GOODLAND FORECAST AREA HOURLY WEATHER ROUNDUP
NATIONAL WEATHER SERVICE GOODLAND KS
100 PM MDT MON APR 27 2015

...OFFICIAL OBSERVATIONS...

CITY           SKY/WX    TMP DP  RH WIND       PRES   REMARKS
GOODLAND KS    SUNNY     55  34  45 NE18G25   30.21F
HILL CITY KS   MOSUNNY   59  34  39 NE18      30.17F
IMPERIAL NEB   PTSUNNY   57  32  38 E9        30.23F
MCCOOK NEB     PTSUNNY   63  33  32 NE16G24   30.20F
AKRON CO       CLOUDY    49  35  58 NE9       30.25F
BURLINGTON CO  SUNNY     53  33  46 NE20G26   30.21F
LIMON CO       NOT AVBL
$$

...UNOFFICIAL OBSERVATIONS...

CITY           SKY/WX    TMP DP  RH WIND       PRES   REMARKS
COLBY KS       SUNNY     57  34  41 N18G26    30.20S
GOVE KS          N/A     57  32  39 MISG        N/A
LENORA KS        N/A     57  32  39 MISG        N/A
NORTON KS      SUNNY     59  28  31 N13G23    30.17F
SHARON SPRINGS   N/A     54  40  59 N16G26      N/A
TRIBUNE KS     PTSUNNY   55  43  62 N23G32    30.17F
KIT CARSON CO    N/A     52  36  54 MISG        N/A
YUMA CO          N/A     52  36  55 E13         N/A
$$


USA.gov is the U.S. government's official web portal to all federal, state and local government web resources and services.